EWG19J EDDM-LEPA

Flight info

Callsign EWG19J
Flight time N/A
Altitude 37000
Route TURBU7S/26L TURBU Y107 TOBSO DCT BAKOR DCT SUMIR DCT MISPO DCT PIDAD DCT TALEP DCT RARQU DCT BALEN UT250 RIXOT
Aircraft A320/M-SDE3FGHIRWY/LB1

Departure

Time 2026-05-07 18:39
Airport Munich Airport (EDDM)

Arrival

Time N/A
Airport Palma de Mallorca Airport (LEPA)
Time Latitude Longitude Altitude Speed Heading
2026-05-07 18:10 48.35099 11.79368 1486 ft 0 kts 263°
2026-05-07 18:28 48.35100 11.79391 1475 ft 4 kts 263°
2026-05-07 18:28 48.35104 11.79431 1482 ft 4 kts 263°
2026-05-07 18:29 48.35106 11.79462 1485 ft 4 kts 256°
2026-05-07 18:29 48.35117 11.79496 1471 ft 4 kts 217°
2026-05-07 18:29 48.35140 11.79508 1475 ft 3 kts 173°
2026-05-07 18:29 48.35159 11.79505 1475 ft 0 kts 173°
2026-05-07 18:33 48.35135 11.79509 1475 ft 11 kts 173°
2026-05-07 18:34 48.35047 11.79525 1485 ft 12 kts 173°
2026-05-07 18:34 48.34968 11.79538 1475 ft 11 kts 173°
2026-05-07 18:34 48.34901 11.79550 1475 ft 9 kts 173°
2026-05-07 18:34 48.34881 11.79553 1479 ft 0 kts 173°
2026-05-07 18:35 48.34879 11.79554 1479 ft 2 kts 173°
2026-05-07 18:35 48.34825 11.79570 1475 ft 10 kts 154°
2026-05-07 18:36 48.34800 11.79669 1485 ft 12 kts 84°
2026-05-07 18:36 48.34812 11.79827 1476 ft 17 kts 83°
2026-05-07 18:36 48.34826 11.80012 1473 ft 19 kts 83°
2026-05-07 18:36 48.34809 11.80166 1474 ft 13 kts 127°
2026-05-07 18:37 48.34753 11.80237 1483 ft 9 kts 163°
2026-05-07 18:37 48.34693 11.80249 1482 ft 8 kts 173°
2026-05-07 18:37 48.34616 11.80262 1474 ft 12 kts 174°
2026-05-07 18:37 48.34524 11.80278 1474 ft 15 kts 176°
2026-05-07 18:38 48.34461 11.80198 1485 ft 12 kts 258°
2026-05-07 18:38 48.34443 11.79967 1485 ft 49 kts 264°
2026-05-07 18:38 48.34375 11.79088 1486 ft 117 kts 263°
2026-05-07 18:38 48.34260 11.77595 1480 ft 168 kts 264°
2026-05-07 18:39 48.34124 11.75798 2039 ft 174 kts 266°
2026-05-07 18:39 48.33994 11.73983 2811 ft 176 kts 265°
2026-05-07 18:39 48.33610 11.72181 3196 ft 198 kts 235°
2026-05-07 18:39 48.32438 11.70957 3567 ft 219 kts 194°
2026-05-07 18:40 48.30895 11.70793 4187 ft 226 kts 182°
2026-05-07 18:40 48.29320 11.70872 5084 ft 227 kts 171°
2026-05-07 18:40 48.27820 11.71687 5758 ft 243 kts 150°
2026-05-07 18:40 48.26348 11.73180 6201 ft 268 kts 147°
2026-05-07 18:41 48.24769 11.74807 6899 ft 280 kts 148°
2026-05-07 18:41 48.23053 11.76212 7745 ft 283 kts 161°
2026-05-07 18:41 48.21211 11.77304 8665 ft 286 kts 162°
2026-05-07 18:41 48.19347 11.78408 9599 ft 290 kts 162°
2026-05-07 18:42 48.17449 11.79531 10377 ft 300 kts 162°
2026-05-07 18:42 48.15434 11.80714 10708 ft 323 kts 162°
2026-05-07 18:42 48.13268 11.81982 11076 ft 343 kts 162°
2026-05-07 18:42 48.10993 11.83198 11770 ft 348 kts 170°
2026-05-07 18:43 48.08592 11.83542 12544 ft 348 kts 182°
2026-05-07 18:43 48.06159 11.83610 13354 ft 352 kts 182°
2026-05-07 18:43 48.03721 11.83665 14109 ft 356 kts 182°
2026-05-07 18:43 48.01231 11.83715 14809 ft 360 kts 182°
2026-05-07 18:44 47.98711 11.83765 15488 ft 364 kts 182°
2026-05-07 18:44 47.96159 11.83811 16157 ft 369 kts 182°
2026-05-07 18:44 47.93539 11.83859 16828 ft 374 kts 182°
2026-05-07 18:44 47.90955 11.83907 17463 ft 379 kts 182°
2026-05-07 18:45 47.88304 11.83960 18116 ft 384 kts 182°
2026-05-07 18:45 47.85617 11.84019 18683 ft 388 kts 182°
2026-05-07 18:45 47.82902 11.84079 19257 ft 392 kts 182°
2026-05-07 18:45 47.80170 11.84138 19846 ft 394 kts 182°
2026-05-07 18:46 47.77412 11.84199 20451 ft 397 kts 182°
2026-05-07 18:46 47.74641 11.84256 21040 ft 400 kts 182°
2026-05-07 18:46 47.71851 11.84311 21609 ft 402 kts 182°
2026-05-07 18:46 47.69040 11.84368 22156 ft 406 kts 182°
2026-05-07 18:47 47.66200 11.84430 22672 ft 410 kts 182°
2026-05-07 18:47 47.63338 11.84487 23207 ft 413 kts 182°
2026-05-07 18:47 47.60456 11.84542 23720 ft 416 kts 182°
2026-05-07 18:47 47.57553 11.84602 24197 ft 418 kts 182°
2026-05-07 18:48 47.55620 11.84642 24514 ft 420 kts 182°
2026-05-07 18:48 47.52690 11.84704 24965 ft 422 kts 182°
2026-05-07 18:48 47.49746 11.84766 25416 ft 424 kts 182°
2026-05-07 18:48 47.46792 11.84827 25858 ft 426 kts 182°
2026-05-07 18:49 47.43806 11.84886 26264 ft 428 kts 182°
2026-05-07 18:49 47.40816 11.84951 26698 ft 431 kts 182°
2026-05-07 18:49 47.37815 11.85018 27118 ft 433 kts 182°
2026-05-07 18:49 47.34784 11.85082 27526 ft 436 kts 182°
2026-05-07 18:50 47.31750 11.85146 27952 ft 438 kts 182°
2026-05-07 18:50 47.28695 11.85209 28379 ft 440 kts 183°
2026-05-07 18:50 47.25622 11.85270 28766 ft 443 kts 183°
2026-05-07 18:50 47.22534 11.85328 29138 ft 445 kts 183°
2026-05-07 18:51 47.19428 11.85386 29481 ft 448 kts 183°
2026-05-07 18:51 47.16338 11.85447 29854 ft 450 kts 184°
2026-05-07 18:51 47.13196 11.85514 30207 ft 453 kts 184°
2026-05-07 18:51 47.10001 11.85583 30449 ft 455 kts 184°
2026-05-07 18:52 47.06819 11.85649 30828 ft 456 kts 184°
2026-05-07 18:52 47.03694 11.85709 31215 ft 454 kts 185°
2026-05-07 18:52 47.00569 11.85356 31650 ft 447 kts 194°
2026-05-07 18:52 46.97540 11.84453 32082 ft 442 kts 198°
2026-05-07 18:53 46.94529 11.83496 32534 ft 441 kts 198°
2026-05-07 18:53 46.91531 11.82548 32979 ft 440 kts 198°
2026-05-07 18:53 46.88542 11.81599 33410 ft 439 kts 198°
2026-05-07 18:53 46.85559 11.80653 33843 ft 438 kts 198°
2026-05-07 18:54 46.82577 11.79710 34257 ft 437 kts 198°
2026-05-07 18:54 46.79608 11.78771 34604 ft 436 kts 198°
2026-05-07 18:54 46.76645 11.77830 34891 ft 435 kts 198°
2026-05-07 18:54 46.73694 11.76893 35284 ft 434 kts 198°
2026-05-07 18:55 46.70781 11.75968 35579 ft 433 kts 198°
2026-05-07 18:55 46.67837 11.75038 35930 ft 433 kts 198°
2026-05-07 18:55 46.64891 11.74114 36272 ft 432 kts 198°
2026-05-07 18:55 46.62022 11.72933 36565 ft 425 kts 206°
2026-05-07 18:56 46.59368 11.71107 36755 ft 420 kts 215°
2026-05-07 18:56 46.56967 11.68727 36964 ft 417 kts 220°
2026-05-07 18:56 46.54630 11.66238 36992 ft 416 kts 220°
2026-05-07 18:57 46.49957 11.61271 36976 ft 416 kts 220°
2026-05-07 18:57 46.45273 11.56322 36972 ft 416 kts 220°
2026-05-07 18:58 46.40590 11.51403 36968 ft 416 kts 220°
2026-05-07 18:58 46.35917 11.46484 37043 ft 414 kts 220°
2026-05-07 18:59 46.31251 11.41581 37062 ft 414 kts 220°
2026-05-07 18:59 46.26585 11.36700 37048 ft 413 kts 220°
2026-05-07 19:00 46.21944 11.31810 37056 ft 413 kts 220°
2026-05-07 19:00 46.17337 11.26900 37059 ft 412 kts 221°
2026-05-07 19:01 46.12723 11.21986 37070 ft 412 kts 220°
2026-05-07 19:01 46.08101 11.17099 37087 ft 412 kts 220°
2026-05-07 19:02 46.03502 11.12253 37073 ft 413 kts 220°
2026-05-07 19:02 45.98860 11.07380 37050 ft 412 kts 220°
2026-05-07 19:03 45.94237 11.02513 37042 ft 412 kts 220°
2026-05-07 19:03 45.89605 10.97647 37046 ft 412 kts 220°
2026-05-07 19:04 45.84957 10.92785 37047 ft 413 kts 220°
2026-05-07 19:04 45.80316 10.87932 37026 ft 413 kts 220°
2026-05-07 19:05 45.75672 10.83089 37037 ft 413 kts 220°
2026-05-07 19:05 45.71026 10.78276 37024 ft 412 kts 220°
2026-05-07 19:06 45.66394 10.73460 37024 ft 411 kts 220°
2026-05-07 19:06 45.59449 10.66274 37009 ft 410 kts 220°
2026-05-07 19:07 45.54829 10.61511 37004 ft 410 kts 220°
2026-05-07 19:07 45.50207 10.56749 37001 ft 410 kts 220°
2026-05-07 19:08 45.45581 10.51994 37007 ft 410 kts 220°
2026-05-07 19:08 45.40986 10.47282 37013 ft 410 kts 220°
2026-05-07 19:09 45.36365 10.42548 37012 ft 409 kts 220°
2026-05-07 19:09 45.31744 10.37829 37006 ft 409 kts 219°
2026-05-07 19:10 45.27119 10.33107 36991 ft 408 kts 220°
2026-05-07 19:10 45.22485 10.28434 36968 ft 409 kts 218°
2026-05-07 19:11 45.17728 10.24000 36977 ft 409 kts 217°
2026-05-07 19:11 45.12927 10.19671 36993 ft 409 kts 217°
2026-05-07 19:12 45.08181 10.15348 36974 ft 408 kts 217°
2026-05-07 19:12 45.03432 10.10971 36978 ft 407 kts 218°
2026-05-07 19:13 44.98689 10.06611 36983 ft 407 kts 217°
2026-05-07 19:13 44.93930 10.02266 36960 ft 407 kts 217°
2026-05-07 19:14 44.89179 9.97930 36964 ft 406 kts 218°
2026-05-07 19:14 44.84438 9.93591 36971 ft 406 kts 218°
2026-05-07 19:15 44.79686 9.89263 36971 ft 406 kts 217°
2026-05-07 19:15 44.74932 9.84955 36962 ft 406 kts 217°
2026-05-07 19:16 44.70186 9.80662 36981 ft 405 kts 218°
2026-05-07 19:16 44.65479 9.76389 36998 ft 405 kts 218°
2026-05-07 19:17 44.60734 9.72108 37004 ft 405 kts 217°
2026-05-07 19:17 44.55994 9.67837 37000 ft 403 kts 218°
2026-05-07 19:18 44.51275 9.63593 37016 ft 403 kts 218°
2026-05-07 19:18 44.46553 9.59364 37021 ft 402 kts 217°
2026-05-07 19:19 44.41852 9.55154 37022 ft 401 kts 217°
2026-05-07 19:19 44.37179 9.50983 37020 ft 400 kts 218°
2026-05-07 19:20 44.32472 9.46782 37015 ft 400 kts 217°
2026-05-07 19:20 44.27776 9.42597 37033 ft 400 kts 217°
2026-05-07 19:21 44.23091 9.38427 37020 ft 400 kts 217°
2026-05-07 19:21 44.18401 9.34268 37006 ft 399 kts 217°
2026-05-07 19:22 44.13730 9.30138 37017 ft 398 kts 217°
2026-05-07 19:22 44.09057 9.26006 37009 ft 397 kts 217°
2026-05-07 19:23 44.04398 9.21886 36988 ft 397 kts 217°
2026-05-07 19:23 43.99769 9.17810 37006 ft 396 kts 217°
2026-05-07 19:24 43.95122 9.13726 37012 ft 395 kts 217°
2026-05-07 19:24 43.90464 9.09651 37006 ft 395 kts 217°
2026-05-07 19:25 43.85812 9.05588 36992 ft 395 kts 216°
2026-05-07 19:25 43.81169 9.01520 37014 ft 395 kts 217°
2026-05-07 19:26 43.76529 8.97462 37012 ft 394 kts 217°
2026-05-07 19:26 43.71883 8.93425 37012 ft 394 kts 216°
2026-05-07 19:27 43.67238 8.89392 36996 ft 394 kts 216°
2026-05-07 19:27 43.62596 8.85380 37005 ft 393 kts 216°
2026-05-07 19:28 43.57955 8.81362 37010 ft 393 kts 216°
2026-05-07 19:28 43.53327 8.77351 37013 ft 393 kts 216°
2026-05-07 19:29 43.48727 8.73384 36997 ft 393 kts 216°
2026-05-07 19:29 43.44378 8.68931 37017 ft 388 kts 225°
2026-05-07 19:30 43.40383 8.63950 37014 ft 388 kts 224°
2026-05-07 19:30 43.36365 8.58993 37014 ft 388 kts 224°
2026-05-07 19:31 43.32343 8.54054 37012 ft 388 kts 224°
2026-05-07 19:31 43.28328 8.49115 36999 ft 387 kts 224°
2026-05-07 19:32 43.24994 8.45014 37002 ft 387 kts 224°
2026-05-07 19:32 43.20331 8.39287 37005 ft 387 kts 224°
2026-05-07 19:33 43.16978 8.35175 37009 ft 387 kts 224°
2026-05-07 19:33 43.12965 8.30258 37014 ft 387 kts 224°
2026-05-07 19:34 43.08944 8.25350 36995 ft 387 kts 224°
2026-05-07 19:34 43.04944 8.20483 36995 ft 387 kts 224°
2026-05-07 19:35 43.00892 8.15560 36992 ft 387 kts 224°
2026-05-07 19:35 42.96898 8.10697 36994 ft 387 kts 224°
2026-05-07 19:36 42.92867 8.05801 36988 ft 387 kts 224°
2026-05-07 19:36 42.88826 8.00915 36992 ft 388 kts 224°
2026-05-07 19:37 42.84786 7.96043 37018 ft 388 kts 223°
2026-05-07 19:37 42.80748 7.91173 37007 ft 388 kts 223°
2026-05-07 19:38 42.76702 7.86308 37004 ft 388 kts 223°
2026-05-07 19:38 42.72650 7.81444 36982 ft 389 kts 223°
2026-05-07 19:39 42.68598 7.76586 36997 ft 389 kts 223°
2026-05-07 19:39 42.64538 7.71719 36998 ft 389 kts 223°
2026-05-07 19:40 42.60495 7.66882 37002 ft 389 kts 223°
2026-05-07 19:40 42.56432 7.62036 37004 ft 389 kts 223°
2026-05-07 19:41 42.52366 7.57189 37016 ft 389 kts 223°
2026-05-07 19:41 42.48295 7.52348 37010 ft 389 kts 223°
2026-05-07 19:42 42.44244 7.47553 37003 ft 389 kts 223°
2026-05-07 19:42 42.40164 7.42736 36998 ft 389 kts 223°
2026-05-07 19:43 42.36084 7.37914 36976 ft 389 kts 223°
2026-05-07 19:43 42.32003 7.33101 36986 ft 389 kts 222°
2026-05-07 19:44 42.27916 7.28297 36991 ft 389 kts 223°
2026-05-07 19:44 42.23835 7.23486 36993 ft 389 kts 223°
2026-05-07 19:45 42.19743 7.18680 36994 ft 389 kts 222°
2026-05-07 19:45 42.15655 7.13889 36986 ft 389 kts 222°
2026-05-07 19:46 42.11561 7.09114 36990 ft 389 kts 222°
2026-05-07 19:46 42.07467 7.04336 36992 ft 390 kts 222°
2026-05-07 19:47 42.03371 6.99551 36994 ft 390 kts 222°
2026-05-07 19:47 41.99295 6.94727 36999 ft 390 kts 223°
2026-05-07 19:48 41.95295 6.89789 36987 ft 390 kts 224°
2026-05-07 19:48 41.91296 6.84836 36991 ft 391 kts 224°
2026-05-07 19:49 41.87305 6.79938 37003 ft 391 kts 223°
2026-05-07 19:49 41.83279 6.75022 36999 ft 391 kts 223°
2026-05-07 19:50 41.79242 6.70116 36996 ft 392 kts 223°
2026-05-07 19:50 41.75205 6.65192 36984 ft 392 kts 223°
2026-05-07 19:51 41.71161 6.60277 36992 ft 393 kts 223°
2026-05-07 19:51 41.67114 6.55375 36990 ft 392 kts 223°
2026-05-07 19:52 41.63062 6.50469 36998 ft 392 kts 223°
2026-05-07 19:52 41.59013 6.45580 37004 ft 393 kts 223°
2026-05-07 19:53 41.54947 6.40684 36999 ft 393 kts 223°
2026-05-07 19:53 41.50912 6.35826 36997 ft 393 kts 223°
2026-05-07 19:54 41.46849 6.30930 36994 ft 394 kts 223°
2026-05-07 19:54 41.42776 6.26035 36993 ft 394 kts 223°
2026-05-07 19:55 41.38696 6.21160 36984 ft 394 kts 223°
2026-05-07 19:55 41.34608 6.16283 36989 ft 394 kts 223°
2026-05-07 19:56 41.30525 6.11407 36995 ft 394 kts 223°
2026-05-07 19:56 41.26441 6.06540 37007 ft 394 kts 223°
2026-05-07 19:57 41.22352 6.01681 36998 ft 394 kts 222°
2026-05-07 19:57 41.18258 5.96834 36972 ft 394 kts 223°
2026-05-07 19:58 41.14166 5.91985 36983 ft 394 kts 223°
2026-05-07 19:58 41.10068 5.87143 36994 ft 395 kts 223°
2026-05-07 19:59 41.05965 5.82308 37006 ft 394 kts 223°
2026-05-07 19:59 41.01870 5.77474 36985 ft 394 kts 223°
2026-05-07 20:00 40.97801 5.72671 36989 ft 394 kts 223°
2026-05-07 20:00 40.93919 5.67572 36986 ft 394 kts 233°
2026-05-07 20:01 40.90742 5.61640 36983 ft 395 kts 234°
2026-05-07 20:01 40.87566 5.55716 36983 ft 395 kts 234°
2026-05-07 20:02 40.84389 5.49792 36982 ft 395 kts 234°
2026-05-07 20:02 40.81207 5.43870 36983 ft 395 kts 234°
2026-05-07 20:03 40.78028 5.38000 36970 ft 396 kts 234°
2026-05-07 20:03 40.74830 5.32092 37007 ft 396 kts 234°
2026-05-07 20:04 40.71623 5.26166 36482 ft 395 kts 233°
2026-05-07 20:04 40.70041 5.23243 35772 ft 389 kts 233°
2026-05-07 20:04 40.68464 5.20331 35014 ft 392 kts 233°
2026-05-07 20:05 40.66877 5.17404 34303 ft 393 kts 232°
2026-05-07 20:05 40.65280 5.14464 33440 ft 397 kts 232°
2026-05-07 20:05 40.63667 5.11497 32522 ft 400 kts 232°
2026-05-07 20:05 40.62036 5.08493 31609 ft 403 kts 232°
2026-05-07 20:06 40.60421 5.05518 30728 ft 406 kts 232°
2026-05-07 20:06 40.58785 5.02513 30199 ft 401 kts 232°
2026-05-07 20:06 40.57166 4.99543 29547 ft 398 kts 232°
2026-05-07 20:06 40.55557 4.96598 28947 ft 393 kts 232°
2026-05-07 20:07 40.53971 4.93697 28374 ft 389 kts 232°
2026-05-07 20:07 40.52402 4.90825 27789 ft 385 kts 232°
2026-05-07 20:07 40.50849 4.87987 27232 ft 380 kts 232°
2026-05-07 20:07 40.49308 4.85183 26680 ft 377 kts 232°
2026-05-07 20:08 40.47778 4.82410 26130 ft 373 kts 232°
2026-05-07 20:08 40.46266 4.79660 25581 ft 370 kts 233°
2026-05-07 20:08 40.44767 4.76927 25040 ft 368 kts 233°
2026-05-07 20:08 40.43277 4.74211 24497 ft 366 kts 233°
2026-05-07 20:09 40.41790 4.71501 23954 ft 364 kts 233°
2026-05-07 20:09 40.40308 4.68804 23409 ft 372 kts 233°
2026-05-07 20:09 40.38782 4.66034 22838 ft 382 kts 233°
2026-05-07 20:10 40.35635 4.60345 22319 ft 387 kts 233°
2026-05-07 20:10 40.34051 4.57495 22022 ft 386 kts 233°
2026-05-07 20:10 40.32482 4.54658 21733 ft 384 kts 233°
2026-05-07 20:10 40.30913 4.51822 21442 ft 383 kts 233°
2026-05-07 20:11 40.29355 4.49013 21152 ft 381 kts 233°
2026-05-07 20:11 40.27791 4.46203 20844 ft 380 kts 233°
2026-05-07 20:11 40.26237 4.43405 20572 ft 380 kts 233°
2026-05-07 20:11 40.24688 4.40619 20290 ft 379 kts 233°
2026-05-07 20:12 40.23137 4.37829 20001 ft 378 kts 233°
2026-05-07 20:12 40.21593 4.35049 19707 ft 377 kts 233°
2026-05-07 20:12 40.20052 4.32277 19422 ft 376 kts 233°
2026-05-07 20:12 40.18511 4.29514 19125 ft 376 kts 232°
2026-05-07 20:13 40.17991 4.28585 19041 ft 375 kts 232°